RH
51 57 56 52 46 37 26 29 39 54 69 75 65 60 38 32 46 34 36 51 40 20 14 14 22 37 74 76 94 94 97 96 97 97 93 93 97 97 98 97 97 98 98
53 45 40 42 42 36 47 53 47 57 67 81 86 77 53 40 46 43 37 52 43 22 16 14 18 26 47 72 84 86 93 97 96 96 95 97 96 97 98 97 98 98 97
59 54 54 55 56 66 57 30 46 61 79 88 94 95 84 70 49 46 46 60 49 23 18 15 17 20 26 51 75 66 96 96 97 98 98 96 95 97 97 98 98 97 98
42 46 46 53 54 34 28 27 35 59 80 94 96 94 95 96 77 63 74 71 53 26 20 18 16 18 19 19 25 62 92 96 95 96 98 98 97 98 97 97 98 98 96
53 24 18 18 17 23 42 57 67 74 78 83 89 91 97 96 93 73 90 87 59 32 22 22 19 17 16 18 20 23 39 86 96 98 97 98 97 97 97 99 97 98 96
14 18 18 19 19 18 29 58 70 71 69 67 66 87 99 97 69 60 89 91 69 40 24 24 22 19 20 18 20 19 19 20 23 27 32 32 31 38 55 84 84 78 74
9 10 9 11 13 14 36 44 41 54 58 48 58 97 100 76 76 77 72 98 87 45 25 23 26 27 21 20 21 23 23 23 23 21 21 23 24 25 25 28 35 36 35
14 11 12 13 23 24 23 32 45 42 43 48 92 76 94 90 82 75 77 83 96 58 34 26 23 25 27 27 22 20 21 22 24 25 27 28 29 29 30 32 35 38 43
39 30 23 13 16 20 31 38 39 45 46 99 95 72 97 82 95 76 82 95 95 95 70 42 36 28 24 26 29 34 37 27 25 25 25 28 28 28 30 33 37 42 51
53 53 65 49 34 79 92 86 71 71 90 76 77 71 76 100 90 95 94 93 100 98 98 85 55 64 76 69 38 42 87 92 92 84 42 27 27 29 29 33 39 60 88
62 66 85 87 97 88 65 76 78 92 96 97 99 97 97 98 98 98 100 100 95 98 99 97 99 95 84 87 82 81 88 98 99 99 99 91 32 28 32 38 66 99 100
32 43 42 51 63 77 94 97 99 97 100 99 98 98 93 100 97 98 99 94 88 93 90 84 99 98 98 100 94 94 84 99 94 96 99 99 92 39 47 77 99 99 100
24 24 23 20 24 39 44 54 74 99 99 99 100 92 98 98 98 99 99 100 97 91 100 96 97 96 99 99 98 97 97 98 99 97 94 99 99 89 91 99 100 99 100
30 26 26 23 21 20 16 17 18 26 65 91 86 69 76 84 97 97 98 98 99 99 97 98 98 97 98 94 99 97 98 98 98 99 94 98 100 98 100 85 100 100 100
22 20 22 20 21 20 14 16 20 20 18 18 19 63 93 88 83 92 98 100 96 98 99 99 100 100 99 100 99 99 99 99 100 98 98 99 99 99 99 90 100 100 100
27 22 18 16 15 14 17 21 23 18 18 19 19 19 20 32 62 78 90 100 100 99 98 99 99 99 100 100 99 99 99 98 98 98 98 98 99 99 100 100 99 100 100
45 42 37 31 26 22 18 18 18 22 22 18 16 17 22 28 30 33 29 57 84 95 99 100 100 98 100 100 99 99 100 100 100 100 100 100 100 100 100 100 100 100 100
38 40 48 52 54 52 42 31 24 21 20 22 22 22 24 25 25 29 38 49 37 35 63 73 92 99 100 100 100 100 100 100 100 100 100 100 100 100 100 100 100 99 99
26 25 24 23 23 30 44 53 51 43 35 32 28 26 25 26 25 25 25 29 31 35 38 42 52 64 80 92 94 92 96 100 100 100 100 100 100 100 100 100 100 100 100
27 29 29 29 29 28 27 24 25 30 35 41 38 34 37 34 27 26 27 27 25 23 23 23 25 36 48 59 79 95 99 99 99 96 96 96 94 98 99 97 97 98 95
22 22 25 28 28 27 26 26 29 31 32 31 28 28 28 27 30 28 26 24 24 26 25 24 23 21 21 21 22 26 36 57 81 97 100 100 99 100 100 100 98 91 83
20 17 17 18 19 23 24 23 22 21 22 24 28 30 30 30 29 30 29 26 24 22 20 19 17 16 18 18 18 18 20 22 29 35 41 44 46 47 47 46 44 43 41
17 12 9 9 9 10 12 13 14 14 15 16 18 20 22 23 23 24 24 24 24 24 24 24 23 22 22 22 23 26 28 32 35 37 40 41 43 46 47 46 46 46 45
15 10 9 8 8 8 8 8 8 9 11 14 16 18 18 18 18 19 19 19 19 19 19 20 21 22 22 24 25 26 27 30 33 36 40 42 44 44 44 42 39 36 34
15 12 11 11 12 12 13 13 12 11 11 10 10 10 10 11 12 13 13 14 14 15 15 16 17 19 21 23 24 26 27 28 29 29 30 31 31 32 32 32 32 32 31
16 14 14 15 16 20 22 23 23 22 20 19 18 16 14 12 11 10 9 9 9 10 10 11 12 12 14 15 15 16 17 20 23 25 26 27 27 27 26 25 23 21 18
Wind_Speed
47 48 48 48 47 44 40 44 45 46 46 47 44 40 39 41 40 40 37 34 30 30 27 25 23 21 20 23 21 18 25 28 28 27 28 27 23 26 24 24 24 27 29
44 45 45 46 46 42 39 45 46 46 45 48 46 42 42 42 40 41 38 36 31 31 28 26 23 22 24 23 24 25 19 21 22 28 25 24 24 25 26 27 29 33 33
44 48 49 52 53 49 45 45 44 41 43 46 47 46 45 45 42 41 41 37 34 32 30 28 24 21 22 24 27 28 28 30 26 27 29 31 32 32 32 33 34 36 37
42 42 43 43 42 43 40 39 38 40 40 42 45 49 51 46 43 44 41 39 35 34 32 31 27 23 24 24 24 23 27 31 33 33 35 33 37 40 39 38 37 38 36
40 39 41 43 43 41 39 37 36 37 38 37 36 42 53 52 39 45 42 42 38 37 36 33 30 25 26 27 26 25 24 27 30 35 35 34 33 36 38 37 38 37 37
37 37 37 39 41 41 41 41 38 36 36 35 36 43 39 42 40 47 46 44 41 40 39 36 35 30 27 28 29 29 29 29 28 29 31 31 31 33 35 35 35 36 39
31 34 34 36 37 39 42 42 40 37 37 39 38 42 33 29 43 48 49 45 42 42 42 41 38 36 34 34 32 31 31 31 31 31 32 33 34 35 35 35 36 38 40
26 31 31 34 34 35 35 37 39 37 37 41 41 38 44 40 45 48 49 48 48 43 42 45 44 42 40 39 38 36 37 38 38 38 37 37 36 37 37 38 39 40 41
22 25 28 29 34 35 34 36 39 38 38 38 40 43 36 40 47 47 49 51 49 47 45 44 43 44 45 44 41 40 42 43 45 46 45 44 43 43 43 43 44 46 47
20 21 22 20 24 30 33 33 37 43 38 49 51 48 47 40 42 44 47 50 45 45 43 47 45 43 42 44 46 43 41 40 39 48 51 49 48 48 48 47 48 50 51
17 17 19 22 20 24 28 34 36 43 47 40 44 40 42 44 46 45 42 40 39 41 46 43 49 51 48 48 51 51 48 46 48 48 48 51 52 52 51 49 51 52 52
19 19 19 17 16 22 25 30 43 42 37 48 50 42 41 42 50 51 51 46 45 46 52 53 49 52 54 55 55 57 62 54 49 50 52 57 54 54 52 51 54 53 51
26 26 24 22 22 22 23 25 26 27 40 53 47 42 45 50 51 60 50 58 52 54 53 54 54 48 55 57 56 60 68 62 56 56 58 62 60 53 55 56 56 56 61
30 31 31 31 29 28 28 29 28 26 28 31 33 37 41 44 48 48 54 55 53 59 56 59 59 58 60 62 64 66 62 63 65 64 67 66 65 57 64 64 68 69 71
33 34 34 36 35 34 33 33 34 34 33 33 32 34 33 34 33 33 37 46 55 58 64 63 62 66 66 72 73 70 66 70 69 70 70 70 69 69 70 70 72 78 77
34 35 36 37 38 39 39 39 38 38 40 41 41 39 37 35 39 40 39 34 33 42 51 57 62 63 63 65 69 68 71 70 68 69 68 70 70 71 72 75 77 76 78
41 42 41 42 42 41 42 42 42 43 42 41 42 41 40 39 40 40 41 45 48 45 40 36 38 44 50 55 58 59 60 62 65 67 69 67 67 68 75 78 76 73 71
47 48 47 47 47 48 48 48 50 49 48 46 45 45 44 44 43 43 42 42 43 47 50 50 48 43 42 42 42 44 48 54 59 62 62 63 66 65 65 67 66 66 65
54 55 56 57 57 57 56 55 55 54 56 56 55 53 52 51 50 48 48 48 48 47 47 48 49 49 48 48 48 47 48 50 51 52 53 54 54 54 54 55 56 57 59
60 61 60 61 61 62 63 63 63 63 62 61 61 61 60 59 58 56 57 55 54 53 52 51 50 51 52 51 52 52 51 51 51 53 53 54 56 56 56 57 59 60 62
65 67 68 68 67 67 67 68 67 67 66 66 66 66 67 67 66 66 65 63 63 63 63 62 60 59 58 58 57 57 57 57 57 57 57 58 59 60 61 62 63 65 66
71 70 70 70 73 75 75 75 75 74 73 72 71 70 70 70 70 70 69 69 69 69 68 68 68 67 66 66 67 65 65 65 64 64 64 64 64 65 66 67 67 68 69
62 60 59 59 61 63 66 67 69 70 71 73 74 73 73 73 73 73 73 73 72 72 71 70 71 71 71 71 71 71 70 70 70 70 69 69 69 69 69 69 70 70 71
57 52 49 47 47 48 50 53 56 60 62 64 65 66 67 67 67 69 70 71 72 72 73 73 73 73 73 73 73 72 71 71 71 71 71 71 70 70 70 71 71 71 72
54 48 45 44 42 41 41 42 43 45 48 51 55 59 61 62 63 65 67 68 69 70 70 71 71 72 72 72 72 72 73 73 73 73 73 72 71 71 71 70 71 72 72
51 46 43 41 40 38 37 37 37 37 38 39 41 43 46 48 50 52 57 61 64 66 67 68 68 68 68 68 68 68 68 69 70 70 71 71 71 70 70 70 69 69 69
Wind_Direction
244 246 249 251 250 245 245 253 253 256 258 261 258 256 252 251 245 249 252 256 260 264 273 273 266 264 268 267 259 266 241 240 235 243 245 245 242 242 244 250 250 251 252
251 248 248 249 249 249 251 252 254 254 255 259 259 254 250 251 244 246 251 255 257 260 265 267 264 264 264 262 261 254 250 228 236 240 238 235 244 246 250 249 256 259 261
253 251 250 252 253 253 257 255 256 257 258 258 256 251 246 247 242 244 248 252 253 255 258 264 259 257 260 259 251 254 244 245 238 246 252 251 250 247 256 249 256 258 266
249 249 251 252 253 255 256 256 255 256 256 259 258 254 248 237 235 242 246 251 250 252 252 258 257 252 255 254 254 253 245 243 245 243 248 256 253 252 260 252 255 261 264
244 251 250 250 252 252 254 251 250 248 254 258 261 264 255 245 231 241 244 248 247 248 248 252 253 253 254 257 254 252 249 244 247 248 249 251 251 250 249 258 255 256 253
248 247 249 250 249 249 250 249 248 249 249 253 260 249 261 241 231 240 242 247 249 249 247 248 250 248 249 256 257 252 250 249 249 249 249 252 252 253 251 253 255 254 258
251 251 251 248 247 246 245 248 246 245 247 245 245 251 235 253 234 236 243 248 252 252 250 246 246 248 246 248 253 256 257 256 253 252 254 254 255 256 256 259 260 262 264
255 248 250 247 244 244 246 243 245 246 250 256 242 259 257 253 245 244 245 248 249 250 252 253 249 249 249 249 250 253 257 259 261 261 260 260 261 262 263 263 264 266 267
262 246 248 246 242 243 243 248 248 244 242 254 224 252 246 251 251 243 245 248 256 248 251 253 253 253 250 251 250 253 256 257 259 259 260 260 260 260 262 264 266 267 267
271 264 261 261 250 248 253 254 249 246 249 247 246 248 239 244 257 250 247 246 252 247 258 251 249 253 259 258 252 250 255 260 263 261 259 260 260 262 264 265 267 270 272
274 275 275 269 265 262 265 260 253 259 251 255 241 244 253 252 253 249 249 249 249 256 260 259 253 254 255 257 257 255 255 264 267 269 274 258 257 258 259 262 267 269 272
289 288 292 291 283 270 269 256 255 259 256 246 248 238 256 252 250 259 250 253 255 257 256 254 256 254 252 254 258 261 261 262 265 267 269 269 258 256 256 260 261 263 264
286 289 289 290 290 286 283 283 280 267 245 246 252 253 255 262 261 249 245 245 260 257 254 251 258 261 256 253 259 263 262 259 267 268 270 272 272 254 258 261 262 261 259
279 277 283 283 280 278 275 278 282 284 284 282 276 271 268 267 266 255 247 255 245 241 258 265 266 265 246 253 265 265 263 265 265 269 271 272 268 255 253 254 256 255 257
275 271 271 270 273 275 271 272 277 277 275 273 274 270 266 267 267 275 262 256 253 252 249 255 254 247 251 254 257 260 263 266 263 265 268 265 264 258 255 253 257 260 257
276 276 274 270 269 269 269 271 273 271 273 274 272 271 268 267 269 269 277 268 261 258 255 255 254 255 256 253 258 261 263 266 266 263 265 265 262 261 259 261 259 255 257
281 279 276 274 273 271 272 271 272 271 269 268 269 271 272 271 270 269 268 269 273 277 276 268 264 261 261 262 262 263 263 263 258 258 259 258 256 259 263 255 254 256 257
283 281 279 278 276 275 271 268 267 268 269 270 270 270 269 269 268 268 269 268 266 270 275 277 276 267 258 255 258 260 259 258 256 256 254 254 256 257 259 261 263 266 268
284 281 280 278 277 275 272 271 270 267 266 267 269 269 268 267 267 268 268 267 268 268 267 266 269 270 271 271 270 268 265 260 260 258 257 256 257 258 260 262 267 271 273
285 282 279 277 276 274 273 271 269 268 268 267 266 267 267 267 266 265 266 266 266 266 266 267 268 268 270 271 271 271 270 269 267 267 268 267 269 270 271 272 273 273 273
288 284 280 277 274 272 271 271 270 269 268 267 266 265 266 266 265 265 264 264 265 265 267 268 269 269 269 269 269 270 270 270 270 270 270 270 270 271 272 273 273 274 276
294 289 284 279 274 271 270 269 269 269 268 267 266 265 264 264 264 264 263 264 264 264 264 264 265 266 267 268 269 269 270 270 269 269 269 269 270 271 272 273 274 275 276
302 295 289 284 279 275 273 271 270 270 269 268 267 266 265 263 262 261 262 263 263 264 264 264 264 264 265 266 267 268 268 268 269 270 270 271 271 272 273 274 274 276 277
308 300 294 290 286 283 279 274 270 267 267 266 266 264 263 262 262 262 262 262 262 262 262 263 263 263 264 264 265 266 267 268 268 269 269 270 271 272 273 274 275 277 278
310 303 298 294 291 287 284 282 279 276 273 270 268 265 262 260 260 259 259 259 259 259 259 260 260 261 262 262 263 263 264 265 266 267 268 269 270 271 272 273 274 276 278
310 305 300 297 294 291 288 286 284 282 280 277 274 272 270 267 264 262 261 259 259 260 260 261 262 263 263 263 264 264 264 265 265 266 267 268 270 271 273 274 276 277 279